Time,TemperatureF,DewpointF,PressureIn,WindDirection,WindDirectionDegrees,WindSpeedMPH,WindSpeedGustMPH,Humidity,HourlyPrecipIn,Conditions,Clouds,dailyrainin,SoftwareType,DateUTC
2013-09-14 00:00:00,41.9,40.8,30.13,NE,45,0.0,1.0,96,0.00,,---,0.00,VWS V14.01,2013-09-14 04:00:00,
2013-09-14 01:00:00,40.7,39.7,30.14,NE,45,0.0,0.0,96,0.00,,---,0.00,VWS V14.01,2013-09-14 05:00:00,
2013-09-14 02:00:00,39.4,38.6,30.13,NE,45,0.0,0.0,97,0.00,,---,0.00,VWS V14.01,2013-09-14 06:00:00,
2013-09-14 03:00:00,38.1,37.3,30.14,NE,45,0.0,0.0,97,0.00,,---,0.00,VWS V14.01,2013-09-14 07:00:00,
2013-09-14 04:00:00,38.2,37.4,30.15,NE,45,0.0,0.0,97,0.00,,---,0.00,VWS V14.01,2013-09-14 08:00:00,
2013-09-14 05:00:00,37.6,36.8,30.15,NE,45,0.0,0.0,97,0.00,,---,0.00,VWS V14.01,2013-09-14 09:00:00,
2013-09-14 06:00:00,37.4,36.9,30.15,NE,45,0.0,1.0,98,0.00,,---,0.00,VWS V14.01,2013-09-14 10:00:00,
2013-09-14 07:00:00,37.2,36.7,30.16,NE,45,0.0,0.0,98,0.00,,---,0.00,VWS V14.01,2013-09-14 11:00:00,
2013-09-14 08:00:00,38.1,37.6,30.17,NE,45,0.0,0.0,98,0.00,,---,0.00,VWS V14.01,2013-09-14 12:00:00,
2013-09-14 09:00:00,44.2,43.4,30.18,East,90,0.0,1.0,97,0.00,,---,0.00,VWS V14.01,2013-09-14 13:00:00,
2013-09-14 10:00:00,50.5,43.9,30.19,WNW,292,1.0,4.0,78,0.00,,---,0.00,VWS V14.01,2013-09-14 14:00:00,
2013-09-14 11:00:00,55.1,42.3,30.19,NW,315,2.0,7.0,62,0.00,,---,0.00,VWS V14.01,2013-09-14 15:00:00,
2013-09-14 12:00:00,57.0,40.5,30.18,WNW,292,3.0,10.0,54,0.00,,---,0.00,VWS V14.01,2013-09-14 16:00:00,
2013-09-14 13:00:00,59.9,41.2,30.17,WSW,248,3.0,12.0,50,0.00,,---,0.00,VWS V14.01,2013-09-14 17:00:00,
2013-09-14 14:00:00,61.9,44.1,30.15,West,270,3.0,17.0,52,0.00,,---,0.00,VWS V14.01,2013-09-14 18:00:00,
2013-09-14 15:00:00,63.5,42.4,30.13,SW,225,4.0,12.0,46,0.00,,---,0.00,VWS V14.01,2013-09-14 19:00:00,
2013-09-14 16:00:00,64.7,43.5,30.11,West,270,5.0,10.0,46,0.00,,---,0.00,VWS V14.01,2013-09-14 20:00:00,
2013-09-14 17:00:00,65.9,44.0,30.10,SW,225,5.0,15.0,45,0.00,,---,0.00,VWS V14.01,2013-09-14 21:00:00,
2013-09-14 18:00:00,66.6,45.8,30.09,WSW,248,5.0,17.0,47,0.00,,---,0.00,VWS V14.01,2013-09-14 22:00:00,
2013-09-14 19:00:00,64.9,46.4,30.09,SW,225,4.0,8.0,51,0.00,,---,0.00,VWS V14.01,2013-09-14 23:00:00,
2013-09-14 20:00:00,61.5,52.0,30.09,SW,225,2.0,5.0,71,0.00,,---,0.00,VWS V14.01,2013-09-15 00:00:00,
2013-09-14 21:00:00,54.2,49.2,30.10,SE,135,0.0,1.0,83,0.00,,---,0.00,VWS V14.01,2013-09-15 01:00:00,
2013-09-14 22:00:00,51.4,47.7,30.10,SE,135,0.0,0.0,87,0.00,,---,0.00,VWS V14.01,2013-09-15 02:00:00,
2013-09-14 23:00:00,49.9,46.8,30.09,SW,225,0.0,1.0,89,0.00,,---,0.00,VWS V14.01,2013-09-15 03:00:00,